User: anonymous   Login
Location: Unspecified
(0.0000°N, 0.0000°E)
Time: 11:02:08
(UTC+00:00)
Language:

COSMOS 2496 - Orbit

View from above orbital plane
View from above orbital plane
View from above satellite
View from above satellite

Ground track
Ground track

The orbit data is extracted from the following two-line orbital elements,

1 39761U 14028A   19107.73182284 +.00000008 +00000-0 -15677-4 0  9993
2 39761 082.4428 308.2605 0019982 022.3556 337.8390 12.42895357222423
Epoch (UTC): 17 April 2019 17:33:49
Eccentricity: 0.0019982
inclination: 82.4428°
perigee height: 1478 km
apogee height: 1510 km
right ascension of ascending node: 308.2605°
argument of perigee: 22.3556°
revolutions per day: 12.42895357
mean anomaly at epoch: 337.8390°
orbit number at epoch: 22242

The dashed part of the orbit path shows where the satellite is in the earth's shadow,  

DLR